FW3192 Weather Reports


Display with metric or nautical units.
time (UTC)temp
F
wind
direction
speed
MPH
gust
MPH
rain 1hr
in
rain 24hr
in
rain mn
in
humidity
%
barometer
mb
20260904080004 65 84 2.0 6.0 0.04 0.21 0.21 87 1007.5
20260904074503 66 16 4.0 7.0 0.04 0.21 0.21 86 1007.8
20260904073003 66 36 4.0 8.0 0.00 0.17 0.17 84 1007.8
20260904071602 67 47 3.0 7.0 0.00 0.17 0.17 84 1007.8
20260904070046 67 38 4.0 8.0 0.00 0.17 0.17 83 1008.1
20260904064543 67 49 3.0 8.0 0.00 0.17 0.17 83 1008.2
20260904063044 66 28 4.0 8.0 0.00 0.17 0.17 82 1008.4
20260904061542 66 49 5.0 10.0 0.00 0.17 0.17 82 1008.4
20260904060040 66 42 10.0 14.0 0.00 0.17 0.17 80 1008.4
20260904054541 66 34 8.0 16.0 0.00 0.17 0.17 79 1008.6
20260904053034 66 40 6.0 14.0 0.00 0.17 0.17 79 1008.6
20260904051514 65 38 8.0 16.0 0.00 0.17 0.17 81 1008.9
20260904050010 64 29 8.0 15.0 0.00 0.17 0.17 80 1009.3
20260904044556 64 57 8.0 16.0 0.00 0.17 0.17 81 1009.6
20260904043105 64 42 11.0 16.0 0.00 0.17 0.17 80 1009.7
20260904041549 63 56 7.0 14.0 0.00 0.17 0.17 81 1010.0
20260904040047 63 358 3.0 12.0 0.00 0.17 0.17 82 1010.0
20260904034542 62 43 7.0 12.0 0.00 0.17 0.17 82 1010.7
20260904033039 62 23 9.0 16.0 0.00 0.17 0.17 82 1011.1
20260904031536 62 44 9.0 14.0 0.01 0.17 0.17 83 1011.4
20260904030032 61 32 4.0 13.0 0.01 0.17 0.17 90 1011.9
20260904024516 59 37 4.0 12.0 0.02 0.17 0.17 94 1012.2
20260904023013 57 93 7.0 10.0 0.12 0.17 0.17 94 1012.7
20260904021510 56 140 3.0 5.0 0.14 0.16 0.16 94 1014.2
20260904020010 57 47 3.0 12.0 0.14 0.18 0.16 93 1014.1
20260904014508 56 49 8.0 14.0 0.14 0.17 0.15 91 1013.7
20260904013005 58 20 4.0 7.0 0.03 0.06 0.04 85 1015.0
20260904011509 58 62 4.0 11.0 0.01 0.04 0.02 86 1014.6
20260904010006 58 59 6.0 12.0 0.01 0.04 0.02 86 1014.5
20260904004503 58 26 9.0 13.0 0.00 0.03 0.01 84 1015.3
20260904003047 58 7 10.0 14.0 0.01 0.03 0.01 83 1015.9
20260904001551 58 29 11.0 17.0 0.01 0.03 0.01 84 1015.9
20260904000045 58 27 13.0 18.0 0.01 0.03 0.01 84 1015.6
20260903234544 58 36 11.0 17.0 0.01 0.03 0.01 84 1015.5
20260903233043 58 95 11.0 17.0 0.00 0.02 0.00 83 1015.4
20260903231543 58 36 10.0 15.0 0.00 0.02 0.00 83 1015.7
20260903230040 57 26 12.0 17.0 0.00 0.02 0.00 84 1015.7
20260903224539 56 60 9.0 16.0 0.00 0.02 0.00 86 1015.7
20260903223048 56 66 8.0 14.0 0.00 0.02 0.00 86 1015.6
20260903221537 55 38 5.0 14.0 0.00 0.02 0.00 87 1015.6
20260903220053 55 45 9.0 14.0 0.00 0.02 0.00 87 1015.7
20260903214535 54 31 5.0 14.0 0.00 0.02 0.00 88 1015.4
20260903213036 54 29 6.0 10.0 0.00 0.02 0.00 88 1015.4
20260903211536 54 58 6.0 10.0 0.00 0.02 0.00 89 1015.3
20260903210035 54 83 6.0 11.0 0.00 0.02 0.00 88 1015.2
20260903204530 54 45 4.0 12.0 0.00 0.02 0.00 89 1015.3
20260903203029 53 81 5.0 11.0 0.00 0.02 0.00 89 1015.3
20260903201526 53 33 7.0 11.0 0.00 0.02 0.00 90 1015.8
20260903200013 52 29 6.0 11.0 0.00 0.02 0.00 90 1016.0
20260903194511 52 29 5.0 11.0 0.00 0.02 0.00 91 1015.9
20260903193011 52 45 6.0 12.0 0.00 0.02 0.00 91 1016.2
20260903191508 52 56 8.0 12.0 0.00 0.02 0.00 91 1016.6
20260903190004 52 40 6.0 11.0 0.00 0.02 0.00 91 1016.6
20260903184502 52 37 5.0 9.0 0.00 0.02 0.00 92 1016.4
20260903183059 51 56 2.0 7.0 0.00 0.02 0.00 92 1016.4
20260903181558 51 27 1.0 7.0 0.00 0.02 0.00 92 1016.3
20260903180038 51 42 0.0 5.0 0.00 0.02 0.00 92 1017.0
20260903174534 52 45 4.0 6.0 0.00 0.02 0.00 92 1017.4
20260903173024 52 37 1.0 4.0 0.00 0.02 0.00 91 1017.5
20260903171513 52 55 1.0 3.0 0.00 0.02 0.00 91 1017.8
20260903170009 53 39 4.0 6.0 0.00 0.02 0.00 91 1018.2
20260903164506 54 42 3.0 5.0 0.00 0.02 0.00 91 1018.3
20260903163006 54 42 1.0 2.0 0.00 0.02 0.00 91 1018.3
20260903161503 54 35 1.0 2.0 0.00 0.02 0.00 90 1018.6
20260903160002 54 39 1.0 2.0 0.00 0.02 0.00 90 1018.5
20260903154502 54 76 1.0 3.0 0.00 0.02 0.00 90 1018.3
20260903153035 54 88 3.0 5.0 0.00 0.02 0.00 90 1018.4
20260903151535 55 90 1.0 3.0 0.00 0.02 0.00 89 1018.6
20260903150043 55 43 0.0 1.0 0.00 0.02 0.00 89 1018.9
20260903144535 55 34 0.0 1.0 0.00 0.02 0.00 89 1019.1
20260903143037 55 34 0.0 2.0 0.00 0.02 0.00 88 1019.4
20260903141533 55 10 2.0 3.0 0.00 0.02 0.00 87 1019.5
20260903140023 55 34 0.0 1.0 0.00 0.02 0.00 86 1019.6
20260903134536 55 34 0.0 2.0 0.00 0.02 0.00 86 1019.8
20260903133015 55 35 1.0 2.0 0.00 0.02 0.00 85 1019.9
20260903131513 56 30 1.0 2.0 0.00 0.02 0.00 85 1020.1
20260903130011 56 49 1.0 2.0 0.00 0.02 0.00 84 1020.1
20260903124509 56 92 0.0 1.0 0.00 0.02 0.00 83 1020.3
20260903123015 56 92 0.0 2.0 0.00 0.02 0.00 81 1020.3
20260903121508 57 122 0.0 0.0 0.00 0.02 0.00 82 1020.4
20260903120054 57 122 0.0 0.0 0.00 0.02 0.00 80 1020.5
20260903114552 57 122 1.0 3.0 0.00 0.02 0.00 81 1020.4
20260903113051 57 171 1.0 2.0 0.00 0.02 0.00 81 1020.5
20260903111549 57 171 2.0 4.0 0.00 0.02 0.00 80 1020.4
20260903110044 57 159 1.0 3.0 0.00 0.02 0.02 80 1020.2
20260903104549 57 159 1.0 2.0 0.00 0.02 0.02 80 1020.0
20260903103042 57 159 0.0 1.0 0.00 0.02 0.02 78 1019.9
20260903101540 57 159 0.0 2.0 0.00 0.02 0.02 77 1019.7
20260903100025 57 159 1.0 2.0 0.00 0.02 0.02 76 1019.5
20260903094524 57 159 1.0 2.0 0.00 0.02 0.02 78 1019.5
20260903093029 57 159 2.0 5.0 0.00 0.02 0.02 77 1019.4
20260903091521 57 180 3.0 4.0 0.00 0.02 0.02 76 1019.2
20260903090020 58 185 2.0 3.0 0.00 0.02 0.02 77 1019.1
20260903084519 58 219 2.0 3.0 0.00 0.02 0.02 77 1019.0
20260903083016 58 206 2.0 4.0 0.00 0.02 0.02 76 1018.9
20260903081535 58 198 1.0 4.0 0.00 0.02 0.02 74 1018.8